Year,Month,Day,Hour,Minute,Value (Times are PST for temperature in C)
2015,06,15,00,00,18.60
2015,06,15,00,01,18.60
2015,06,15,00,02,18.60
2015,06,15,00,03,18.60
2015,06,15,00,04,18.60
2015,06,15,00,05,18.60
2015,06,15,00,06,18.60
2015,06,15,00,07,18.60
2015,06,15,00,08,18.50
2015,06,15,00,09,18.50
2015,06,15,00,10,18.50
2015,06,15,00,11,18.50
2015,06,15,00,12,18.60
2015,06,15,00,13,18.60
2015,06,15,00,14,18.60
2015,06,15,00,15,18.60
2015,06,15,00,16,18.60
2015,06,15,00,17,18.70
2015,06,15,00,18,18.70
2015,06,15,00,19,18.70
2015,06,15,00,20,18.70
2015,06,15,00,21,18.70
2015,06,15,00,22,18.60
2015,06,15,00,23,18.60
2015,06,15,00,24,18.60
2015,06,15,00,25,18.60
2015,06,15,00,26,18.50
2015,06,15,00,27,18.50
2015,06,15,00,28,18.50
2015,06,15,00,29,18.50
2015,06,15,00,30,18.50
2015,06,15,00,31,18.40
2015,06,15,00,32,18.40
2015,06,15,00,33,18.40
2015,06,15,00,34,18.40
2015,06,15,00,35,18.30
2015,06,15,00,36,18.30
2015,06,15,00,37,18.30
2015,06,15,00,38,18.30
2015,06,15,00,39,18.20
2015,06,15,00,40,18.20
2015,06,15,00,41,18.20
2015,06,15,00,42,18.20
2015,06,15,00,43,18.20
2015,06,15,00,44,18.20
2015,06,15,00,45,18.20
2015,06,15,00,46,18.20
2015,06,15,00,47,18.10
2015,06,15,00,48,18.20
2015,06,15,00,49,18.20
2015,06,15,00,50,18.20
2015,06,15,00,51,18.20
2015,06,15,00,52,18.20
2015,06,15,00,53,18.20
2015,06,15,00,54,18.20
2015,06,15,00,55,18.20
2015,06,15,00,56,18.20
2015,06,15,00,57,18.20
2015,06,15,00,58,18.20
2015,06,15,00,59,18.20
2015,06,15,01,00,18.20
2015,06,15,01,01,18.20
2015,06,15,01,02,18.20
2015,06,15,01,03,18.20
2015,06,15,01,04,18.20
2015,06,15,01,05,18.20
2015,06,15,01,06,18.20
2015,06,15,01,07,18.20
2015,06,15,01,08,18.20
2015,06,15,01,09,18.20
2015,06,15,01,10,18.20
2015,06,15,01,11,18.20
2015,06,15,01,12,18.20
2015,06,15,01,13,18.10
2015,06,15,01,14,18.10
2015,06,15,01,15,18.10
2015,06,15,01,16,18.10
2015,06,15,01,17,18.10
2015,06,15,01,18,18.10
2015,06,15,01,19,18.10
2015,06,15,01,20,18.10
2015,06,15,01,21,18.10
2015,06,15,01,22,18.10
2015,06,15,01,23,18.10
2015,06,15,01,24,18.10
2015,06,15,01,25,18.10
2015,06,15,01,26,18.00
2015,06,15,01,27,18.00
2015,06,15,01,28,17.90
2015,06,15,01,29,17.90
2015,06,15,01,30,17.90
2015,06,15,01,31,17.80
2015,06,15,01,32,17.80
2015,06,15,01,33,17.80
2015,06,15,01,34,17.80
2015,06,15,01,35,17.80
2015,06,15,01,36,17.80
2015,06,15,01,37,17.80
2015,06,15,01,38,17.80
2015,06,15,01,39,17.80
2015,06,15,01,40,17.90
2015,06,15,01,41,18.00
2015,06,15,01,42,18.10
2015,06,15,01,43,18.20
2015,06,15,01,44,18.30
2015,06,15,01,45,18.30
2015,06,15,01,46,18.40
2015,06,15,01,47,18.50
2015,06,15,01,48,18.60
2015,06,15,01,49,18.70
2015,06,15,01,50,18.80
2015,06,15,01,51,18.90
2015,06,15,01,52,19.00
2015,06,15,01,53,19.10
2015,06,15,01,54,19.20
2015,06,15,01,55,19.20
2015,06,15,01,56,19.20
2015,06,15,01,57,19.20
2015,06,15,01,58,19.20
2015,06,15,01,59,19.20
2015,06,15,02,00,19.20
2015,06,15,02,01,19.10
2015,06,15,02,02,19.10
2015,06,15,02,03,19.00
2015,06,15,02,04,18.90
2015,06,15,02,05,18.90
2015,06,15,02,06,18.80
2015,06,15,02,07,18.70
2015,06,15,02,08,18.70
2015,06,15,02,09,18.60
2015,06,15,02,10,18.60
2015,06,15,02,11,18.60
2015,06,15,02,12,18.60
2015,06,15,02,13,18.60
2015,06,15,02,14,18.70
2015,06,15,02,15,18.70
2015,06,15,02,16,18.80
2015,06,15,02,17,18.90
2015,06,15,02,18,19.10
2015,06,15,02,19,19.20
2015,06,15,02,20,19.30
2015,06,15,02,21,19.30
2015,06,15,02,22,19.40
2015,06,15,02,23,19.40
2015,06,15,02,24,19.50
2015,06,15,02,25,19.50
2015,06,15,02,26,19.50
2015,06,15,02,27,19.50
2015,06,15,02,28,19.40
2015,06,15,02,29,19.40
2015,06,15,02,30,19.30
2015,06,15,02,31,19.30
2015,06,15,02,32,19.30
2015,06,15,02,33,19.20
2015,06,15,02,34,19.20
2015,06,15,02,35,19.20
2015,06,15,02,36,19.20
2015,06,15,02,37,19.30
2015,06,15,02,38,19.30
2015,06,15,02,39,19.20
2015,06,15,02,40,19.20
2015,06,15,02,41,19.10
2015,06,15,02,42,19.00
2015,06,15,02,43,19.00
2015,06,15,02,44,18.90
2015,06,15,02,45,18.80
2015,06,15,02,46,18.70
2015,06,15,02,47,18.70
2015,06,15,02,48,18.60
2015,06,15,02,49,18.50
2015,06,15,02,50,18.40
2015,06,15,02,51,18.30
2015,06,15,02,52,18.30
2015,06,15,02,53,18.20
2015,06,15,02,54,18.20
2015,06,15,02,55,18.10
2015,06,15,02,56,18.10
2015,06,15,02,57,18.10
2015,06,15,02,58,18.10
2015,06,15,02,59,18.10
2015,06,15,03,00,18.00
2015,06,15,03,01,18.00
2015,06,15,03,02,18.00
2015,06,15,03,03,18.00
2015,06,15,03,04,18.00
2015,06,15,03,05,18.00
2015,06,15,03,06,18.00
2015,06,15,03,07,18.00
2015,06,15,03,08,18.00
2015,06,15,03,09,18.00
2015,06,15,03,10,18.00
2015,06,15,03,11,18.00
2015,06,15,03,12,18.00
2015,06,15,03,13,18.10
2015,06,15,03,14,18.10
2015,06,15,03,15,18.10
2015,06,15,03,16,18.10
2015,06,15,03,17,18.10
2015,06,15,03,18,18.10
2015,06,15,03,19,18.10
2015,06,15,03,20,18.10
2015,06,15,03,21,18.10
2015,06,15,03,22,18.10
2015,06,15,03,23,18.10
2015,06,15,03,24,18.10
2015,06,15,03,25,18.10
2015,06,15,03,26,18.10
2015,06,15,03,27,18.00
2015,06,15,03,28,18.00
2015,06,15,03,29,18.00
2015,06,15,03,30,18.00
2015,06,15,03,31,18.00
2015,06,15,03,32,17.90
2015,06,15,03,33,17.90
2015,06,15,03,34,17.90
2015,06,15,03,35,17.90
2015,06,15,03,36,17.90
2015,06,15,03,37,17.90
2015,06,15,03,38,18.00
2015,06,15,03,39,18.00
2015,06,15,03,40,18.00
2015,06,15,03,41,18.00
2015,06,15,03,42,18.10
2015,06,15,03,43,18.10
2015,06,15,03,44,18.10
2015,06,15,03,45,18.10
2015,06,15,03,46,18.10
2015,06,15,03,47,18.10
2015,06,15,03,48,18.00
2015,06,15,03,49,18.00
2015,06,15,03,50,18.00
2015,06,15,03,51,18.00
2015,06,15,03,52,18.00
2015,06,15,03,53,18.10
2015,06,15,03,54,18.10
2015,06,15,03,55,18.10
2015,06,15,03,56,18.10
2015,06,15,03,57,18.10
2015,06,15,03,58,18.10
2015,06,15,03,59,18.10
2015,06,15,04,00,18.10
2015,06,15,04,01,18.10
2015,06,15,04,02,18.10
2015,06,15,04,03,18.10
2015,06,15,04,04,18.10
2015,06,15,04,05,18.10
2015,06,15,04,06,18.10
2015,06,15,04,07,18.10
2015,06,15,04,08,18.10
2015,06,15,04,09,18.10
2015,06,15,04,10,18.10
2015,06,15,04,11,18.10
2015,06,15,04,12,18.10
2015,06,15,04,13,18.10
2015,06,15,04,14,18.10
2015,06,15,04,15,18.10
2015,06,15,04,16,18.10
2015,06,15,04,17,18.10
2015,06,15,04,18,18.00
2015,06,15,04,19,18.00
2015,06,15,04,20,18.00
2015,06,15,04,21,17.90
2015,06,15,04,22,17.90
2015,06,15,04,23,17.90
2015,06,15,04,24,17.90
2015,06,15,04,25,17.90
2015,06,15,04,26,17.90
2015,06,15,04,27,17.90
2015,06,15,04,28,17.90
2015,06,15,04,29,17.90
2015,06,15,04,30,17.90
2015,06,15,04,31,17.90
2015,06,15,04,32,17.90
2015,06,15,04,33,17.90
2015,06,15,04,34,17.80
2015,06,15,04,35,17.80
2015,06,15,04,36,17.80
2015,06,15,04,37,17.80
2015,06,15,04,38,17.80
2015,06,15,04,39,17.80
2015,06,15,04,40,17.80
2015,06,15,04,41,17.70
2015,06,15,04,42,17.70
2015,06,15,04,43,17.70
2015,06,15,04,44,17.60
2015,06,15,04,45,17.60
2015,06,15,04,46,17.60
2015,06,15,04,47,17.50
2015,06,15,04,48,17.50
2015,06,15,04,49,17.50
2015,06,15,04,50,17.40
2015,06,15,04,51,17.40
2015,06,15,04,52,17.40
2015,06,15,04,53,17.40
2015,06,15,04,54,17.40
2015,06,15,04,55,17.40
2015,06,15,04,56,17.30
2015,06,15,04,57,17.30
2015,06,15,04,58,17.40
2015,06,15,04,59,17.40
2015,06,15,05,00,17.40
2015,06,15,05,01,17.40
2015,06,15,05,02,17.50
2015,06,15,05,03,17.50
2015,06,15,05,04,17.50
2015,06,15,05,05,17.40
2015,06,15,05,06,17.50
2015,06,15,05,07,17.40
2015,06,15,05,08,17.40
2015,06,15,05,09,17.40
2015,06,15,05,10,17.40
2015,06,15,05,11,17.40
2015,06,15,05,12,17.30
2015,06,15,05,13,17.30
2015,06,15,05,14,17.30
2015,06,15,05,15,17.20
2015,06,15,05,16,17.20
2015,06,15,05,17,17.20
2015,06,15,05,18,17.20
2015,06,15,05,19,17.10
2015,06,15,05,20,17.10
2015,06,15,05,21,17.10
2015,06,15,05,22,17.10
2015,06,15,05,23,17.10
2015,06,15,05,24,17.10
2015,06,15,05,25,17.10
2015,06,15,05,26,17.10
2015,06,15,05,27,17.10
2015,06,15,05,28,17.10
2015,06,15,05,29,17.10
2015,06,15,05,30,17.10
2015,06,15,05,31,17.10
2015,06,15,05,32,17.10
2015,06,15,05,33,17.10
2015,06,15,05,34,17.10
2015,06,15,05,35,17.10
2015,06,15,05,36,17.10
2015,06,15,05,37,17.10
2015,06,15,05,38,17.10
2015,06,15,05,39,17.10
2015,06,15,05,40,17.10
2015,06,15,05,41,17.10
2015,06,15,05,42,17.10
2015,06,15,05,43,17.10
2015,06,15,05,44,17.10
2015,06,15,05,45,17.00
2015,06,15,05,46,17.00
2015,06,15,05,47,17.00
2015,06,15,05,48,16.90
2015,06,15,05,49,16.90
2015,06,15,05,50,16.90
2015,06,15,05,51,16.90
2015,06,15,05,52,16.90
2015,06,15,05,53,16.90
2015,06,15,05,54,16.90
2015,06,15,05,55,16.90
2015,06,15,05,56,16.90
2015,06,15,05,57,16.90
2015,06,15,05,58,16.90
2015,06,15,05,59,16.90
2015,06,15,06,00,16.90
2015,06,15,06,01,16.90
2015,06,15,06,02,16.90
2015,06,15,06,03,16.90
2015,06,15,06,04,17.00
2015,06,15,06,05,17.00
2015,06,15,06,06,17.00
2015,06,15,06,07,17.00
2015,06,15,06,08,17.10
2015,06,15,06,09,17.10
2015,06,15,06,10,17.10
2015,06,15,06,11,17.10
2015,06,15,06,12,17.10
2015,06,15,06,13,17.10
2015,06,15,06,14,17.10
2015,06,15,06,15,17.10
2015,06,15,06,16,17.10
2015,06,15,06,17,17.10
2015,06,15,06,18,17.20
2015,06,15,06,19,17.20
2015,06,15,06,20,17.20
2015,06,15,06,21,17.20
2015,06,15,06,22,17.30
2015,06,15,06,23,17.30
2015,06,15,06,24,17.30
2015,06,15,06,25,17.30
2015,06,15,06,26,17.30
2015,06,15,06,27,17.40
2015,06,15,06,28,17.40
2015,06,15,06,29,17.40
2015,06,15,06,30,17.40
2015,06,15,06,31,17.40
2015,06,15,06,32,17.40
2015,06,15,06,33,17.40
2015,06,15,06,34,17.40
2015,06,15,06,35,17.40
2015,06,15,06,36,17.40
2015,06,15,06,37,17.50
2015,06,15,06,38,17.50
2015,06,15,06,39,17.50
2015,06,15,06,40,17.50
2015,06,15,06,41,17.50
2015,06,15,06,42,17.50
2015,06,15,06,43,17.50
2015,06,15,06,44,17.50
2015,06,15,06,45,17.60
2015,06,15,06,46,17.60
2015,06,15,06,47,17.60
2015,06,15,06,48,17.60
2015,06,15,06,49,17.60
2015,06,15,06,50,17.60
2015,06,15,06,51,17.60
2015,06,15,06,52,17.60
2015,06,15,06,53,17.70
2015,06,15,06,54,17.70
2015,06,15,06,55,17.70
2015,06,15,06,56,17.70
2015,06,15,06,57,17.70
2015,06,15,06,58,17.70
2015,06,15,06,59,17.70
2015,06,15,07,00,17.80
2015,06,15,07,01,17.80
2015,06,15,07,02,17.80
2015,06,15,07,03,17.80
2015,06,15,07,04,17.80
2015,06,15,07,05,17.70
2015,06,15,07,06,17.70
2015,06,15,07,07,17.70
2015,06,15,07,08,17.70
2015,06,15,07,09,17.70
2015,06,15,07,10,17.70
2015,06,15,07,11,17.80
2015,06,15,07,12,17.80
2015,06,15,07,13,17.80
2015,06,15,07,14,17.80
2015,06,15,07,15,17.80
2015,06,15,07,16,17.80
2015,06,15,07,17,17.80
2015,06,15,07,18,17.80
2015,06,15,07,19,17.80
2015,06,15,07,20,17.80
2015,06,15,07,21,17.80
2015,06,15,07,22,17.80
2015,06,15,07,23,17.80
2015,06,15,07,24,17.80
2015,06,15,07,25,17.80
2015,06,15,07,26,17.80
2015,06,15,07,27,17.70
2015,06,15,07,28,17.70
2015,06,15,07,29,17.70
2015,06,15,07,30,17.70
2015,06,15,07,31,17.70
2015,06,15,07,32,17.70
2015,06,15,07,33,17.70
2015,06,15,07,34,17.70
2015,06,15,07,35,17.70
2015,06,15,07,36,17.70
2015,06,15,07,37,17.70
2015,06,15,07,38,17.80
2015,06,15,07,39,17.80
2015,06,15,07,40,17.80
2015,06,15,07,41,17.80
2015,06,15,07,42,17.70
2015,06,15,07,43,17.70
2015,06,15,07,44,17.70
2015,06,15,07,45,17.70
2015,06,15,07,46,17.70
2015,06,15,07,47,17.70
2015,06,15,07,48,17.60
2015,06,15,07,49,17.60
2015,06,15,07,50,17.60
2015,06,15,07,51,17.60
2015,06,15,07,52,17.60
2015,06,15,07,53,17.50
2015,06,15,07,54,17.50
2015,06,15,07,55,17.50
2015,06,15,07,56,17.40
2015,06,15,07,57,17.40
2015,06,15,07,58,17.30
2015,06,15,07,59,17.30
2015,06,15,08,00,17.20
2015,06,15,08,01,17.20
2015,06,15,08,02,17.10
2015,06,15,08,03,17.10
2015,06,15,08,04,17.20
2015,06,15,08,05,17.30
2015,06,15,08,06,17.30
2015,06,15,08,07,17.40
2015,06,15,08,08,17.40
2015,06,15,08,09,17.40
2015,06,15,08,10,17.40
2015,06,15,08,11,17.50
2015,06,15,08,12,17.50
2015,06,15,08,13,17.40
2015,06,15,08,14,17.40
2015,06,15,08,15,17.40
2015,06,15,08,16,17.40
2015,06,15,08,17,17.30
2015,06,15,08,18,17.30
2015,06,15,08,19,17.30
2015,06,15,08,20,17.30
2015,06,15,08,21,17.20
2015,06,15,08,22,17.20
2015,06,15,08,23,17.20
2015,06,15,08,24,17.20
2015,06,15,08,25,17.10
2015,06,15,08,26,17.10
2015,06,15,08,27,17.10
2015,06,15,08,28,17.10
2015,06,15,08,29,17.10
2015,06,15,08,30,17.10
2015,06,15,08,31,17.10
2015,06,15,08,32,17.20
2015,06,15,08,33,17.30
2015,06,15,08,34,17.30
2015,06,15,08,35,17.30
2015,06,15,08,36,17.30
2015,06,15,08,37,17.30
2015,06,15,08,38,17.30
2015,06,15,08,39,17.30
2015,06,15,08,40,17.30
2015,06,15,08,41,17.30
2015,06,15,08,42,17.30
2015,06,15,08,43,17.40
2015,06,15,08,44,17.40
2015,06,15,08,45,17.50
2015,06,15,08,46,17.60
2015,06,15,08,47,17.60
2015,06,15,08,48,17.60
2015,06,15,08,49,17.60
2015,06,15,08,50,17.70
2015,06,15,08,51,17.60
2015,06,15,08,52,17.60
2015,06,15,08,53,17.60
2015,06,15,08,54,17.50
2015,06,15,08,55,17.50
2015,06,15,08,56,17.50
2015,06,15,08,57,17.50
2015,06,15,08,58,17.40
2015,06,15,08,59,17.40
2015,06,15,09,00,17.40
2015,06,15,09,01,17.40
2015,06,15,09,02,17.50
2015,06,15,09,03,17.60
2015,06,15,09,04,17.60
2015,06,15,09,05,17.60
2015,06,15,09,06,17.60
2015,06,15,09,07,17.60
2015,06,15,09,08,17.50
2015,06,15,09,09,17.40
2015,06,15,09,10,17.30
2015,06,15,09,11,17.20
2015,06,15,09,12,17.20
2015,06,15,09,13,17.20
2015,06,15,09,14,17.10
2015,06,15,09,15,17.20
2015,06,15,09,16,17.20
2015,06,15,09,17,17.20
2015,06,15,09,18,17.20
2015,06,15,09,19,17.20
2015,06,15,09,20,17.30
2015,06,15,09,21,17.30
2015,06,15,09,22,17.40
2015,06,15,09,23,17.40
2015,06,15,09,24,17.50
2015,06,15,09,25,17.60
2015,06,15,09,26,17.60
2015,06,15,09,27,17.50
2015,06,15,09,28,17.40
2015,06,15,09,29,17.30
2015,06,15,09,30,17.30
2015,06,15,09,31,17.20
2015,06,15,09,32,17.20
2015,06,15,09,33,17.20
2015,06,15,09,34,17.20
2015,06,15,09,35,17.20
2015,06,15,09,36,17.20
2015,06,15,09,37,17.20
2015,06,15,09,38,17.20
2015,06,15,09,39,17.20
2015,06,15,09,40,17.20
2015,06,15,09,41,17.20
2015,06,15,09,42,17.20
2015,06,15,09,43,17.20
2015,06,15,09,44,17.20
2015,06,15,09,45,17.20
2015,06,15,09,46,17.10
2015,06,15,09,47,17.10
2015,06,15,09,48,17.10
2015,06,15,09,49,17.10
2015,06,15,09,50,17.10
2015,06,15,09,51,17.00
2015,06,15,09,52,17.00
2015,06,15,09,53,17.00
2015,06,15,09,54,17.10
2015,06,15,09,55,17.10
2015,06,15,09,56,17.20
2015,06,15,09,57,17.20
2015,06,15,09,58,17.30
2015,06,15,09,59,17.30
2015,06,15,10,00,17.40
2015,06,15,10,01,17.50
2015,06,15,10,02,17.60
2015,06,15,10,03,17.70
2015,06,15,10,04,17.80
2015,06,15,10,05,17.80
2015,06,15,10,06,17.80
2015,06,15,10,07,17.80
2015,06,15,10,08,17.80
2015,06,15,10,09,17.80
2015,06,15,10,10,17.70
2015,06,15,10,11,17.70
2015,06,15,10,12,17.70
2015,06,15,10,13,17.70
2015,06,15,10,14,17.70
2015,06,15,10,15,17.70
2015,06,15,10,16,17.70
2015,06,15,10,17,17.70
2015,06,15,10,18,17.50
2015,06,15,10,19,17.40
2015,06,15,10,20,17.40
2015,06,15,10,21,17.40
2015,06,15,10,22,17.30
2015,06,15,10,23,17.30
2015,06,15,10,24,17.20
2015,06,15,10,25,17.20
2015,06,15,10,26,17.20
2015,06,15,10,27,17.20
2015,06,15,10,28,17.30
2015,06,15,10,29,17.40
2015,06,15,10,30,17.40
2015,06,15,10,31,17.40
2015,06,15,10,32,17.30
2015,06,15,10,33,17.30
2015,06,15,10,34,17.30
2015,06,15,10,35,17.30
2015,06,15,10,36,17.30
2015,06,15,10,37,17.30
2015,06,15,10,38,17.30
2015,06,15,10,39,17.30
2015,06,15,10,40,17.40
2015,06,15,10,41,17.50
2015,06,15,10,42,17.60
2015,06,15,10,43,17.60
2015,06,15,10,44,17.70
2015,06,15,10,45,17.80
2015,06,15,10,46,17.90
2015,06,15,10,47,17.90
2015,06,15,10,48,17.90
2015,06,15,10,49,17.90
2015,06,15,10,50,17.90
2015,06,15,10,51,17.80
2015,06,15,10,52,17.60
2015,06,15,10,53,17.50
2015,06,15,10,54,17.40
2015,06,15,10,55,17.30
2015,06,15,10,56,17.20
2015,06,15,10,57,17.20
2015,06,15,10,58,17.20
2015,06,15,10,59,17.30
2015,06,15,11,00,17.40
2015,06,15,11,01,17.40
2015,06,15,11,02,17.50
2015,06,15,11,03,17.60
2015,06,15,11,04,17.70
2015,06,15,11,05,17.90
2015,06,15,11,06,18.00
2015,06,15,11,07,18.10
2015,06,15,11,08,18.10
2015,06,15,11,09,18.10
2015,06,15,11,10,18.10
2015,06,15,11,11,18.20
2015,06,15,11,12,18.30
2015,06,15,11,13,18.40
2015,06,15,11,14,18.50
2015,06,15,11,15,18.50
2015,06,15,11,16,18.60
2015,06,15,11,17,18.70
2015,06,15,11,18,18.70
2015,06,15,11,19,18.70
2015,06,15,11,20,18.80
2015,06,15,11,21,18.90
2015,06,15,11,22,18.90
2015,06,15,11,23,19.00
2015,06,15,11,24,19.10
2015,06,15,11,25,19.20
2015,06,15,11,26,19.30
2015,06,15,11,27,19.40
2015,06,15,11,28,19.40
2015,06,15,11,29,19.30
2015,06,15,11,30,19.20
2015,06,15,11,31,19.10
2015,06,15,11,32,19.00
2015,06,15,11,33,19.00
2015,06,15,11,34,19.00
2015,06,15,11,35,18.90
2015,06,15,11,36,18.80
2015,06,15,11,37,18.70
2015,06,15,11,38,18.70
2015,06,15,11,39,18.80
2015,06,15,11,40,18.80
2015,06,15,11,41,18.80
2015,06,15,11,42,18.80
2015,06,15,11,43,18.90
2015,06,15,11,44,18.90
2015,06,15,11,45,18.90
2015,06,15,11,46,18.80
2015,06,15,11,47,18.80
2015,06,15,11,48,18.80
2015,06,15,11,49,18.70
2015,06,15,11,50,18.70
2015,06,15,11,51,18.70
2015,06,15,11,52,18.70
2015,06,15,11,53,18.70
2015,06,15,11,54,18.70
2015,06,15,11,55,18.60
2015,06,15,11,56,18.60
2015,06,15,11,57,18.60
2015,06,15,11,58,18.60
2015,06,15,11,59,18.60
2015,06,15,12,00,18.70
2015,06,15,12,01,18.80
2015,06,15,12,02,18.80
2015,06,15,12,03,18.80
2015,06,15,12,04,18.80
2015,06,15,12,05,18.90
2015,06,15,12,06,19.00
2015,06,15,12,07,19.10
2015,06,15,12,08,19.10
2015,06,15,12,09,19.20
2015,06,15,12,10,19.20
2015,06,15,12,11,19.30
2015,06,15,12,12,19.30
2015,06,15,12,13,19.30
2015,06,15,12,14,19.30
2015,06,15,12,15,19.20
2015,06,15,12,16,19.20
2015,06,15,12,17,19.20
2015,06,15,12,18,19.30
2015,06,15,12,19,19.30
2015,06,15,12,20,19.40
2015,06,15,12,21,19.60
2015,06,15,12,22,19.70
2015,06,15,12,23,19.80
2015,06,15,12,24,19.90
2015,06,15,12,25,19.90
2015,06,15,12,26,19.90
2015,06,15,12,27,19.90
2015,06,15,12,28,19.80
2015,06,15,12,29,19.70
2015,06,15,12,30,19.70
2015,06,15,12,31,19.70
2015,06,15,12,32,19.80
2015,06,15,12,33,19.80
2015,06,15,12,34,19.90
2015,06,15,12,35,19.90
2015,06,15,12,36,20.00
2015,06,15,12,37,20.00
2015,06,15,12,38,20.10
2015,06,15,12,39,20.20
2015,06,15,12,40,20.20
2015,06,15,12,41,20.20
2015,06,15,12,42,20.10
2015,06,15,12,43,20.00
2015,06,15,12,44,19.90
2015,06,15,12,45,19.90
2015,06,15,12,46,19.80
2015,06,15,12,47,19.70
2015,06,15,12,48,19.70
2015,06,15,12,49,19.70
2015,06,15,12,50,19.70
2015,06,15,12,51,19.70
2015,06,15,12,52,19.80
2015,06,15,12,53,19.80
2015,06,15,12,54,19.80
2015,06,15,12,55,19.90
2015,06,15,12,56,19.90
2015,06,15,12,57,19.90
2015,06,15,12,58,20.00
2015,06,15,12,59,19.90
2015,06,15,13,00,19.90
2015,06,15,13,01,19.90
2015,06,15,13,02,20.00
2015,06,15,13,03,20.20
2015,06,15,13,04,20.30
2015,06,15,13,05,20.30
2015,06,15,13,06,20.30
2015,06,15,13,07,20.40
2015,06,15,13,08,20.40
2015,06,15,13,09,20.50
2015,06,15,13,10,20.50
2015,06,15,13,11,20.40
2015,06,15,13,12,20.30
2015,06,15,13,13,20.30
2015,06,15,13,14,20.40
2015,06,15,13,15,20.40
2015,06,15,13,16,20.30
2015,06,15,13,17,20.30
2015,06,15,13,18,20.20
2015,06,15,13,19,20.20
2015,06,15,13,20,20.20
2015,06,15,13,21,20.20
2015,06,15,13,22,20.20
2015,06,15,13,23,20.20
2015,06,15,13,24,20.20
2015,06,15,13,25,20.20
2015,06,15,13,26,20.20
2015,06,15,13,27,20.20
2015,06,15,13,28,20.20
2015,06,15,13,29,20.20
2015,06,15,13,30,20.20
2015,06,15,13,31,20.20
2015,06,15,13,32,20.30
2015,06,15,13,33,20.40
2015,06,15,13,34,20.40
2015,06,15,13,35,20.40
2015,06,15,13,36,20.30
2015,06,15,13,37,20.30
2015,06,15,13,38,20.30
2015,06,15,13,39,20.30
2015,06,15,13,40,20.30
2015,06,15,13,41,20.40
2015,06,15,13,42,20.40
2015,06,15,13,43,20.50
2015,06,15,13,44,20.50
2015,06,15,13,45,20.60
2015,06,15,13,46,20.60
2015,06,15,13,47,20.60
2015,06,15,13,48,20.60
2015,06,15,13,49,20.60
2015,06,15,13,50,20.60
2015,06,15,13,51,20.50
2015,06,15,13,52,20.40
2015,06,15,13,53,20.40
2015,06,15,13,54,20.30
2015,06,15,13,55,20.20
2015,06,15,13,56,20.10
2015,06,15,13,57,20.10
2015,06,15,13,58,20.20
2015,06,15,13,59,20.30
2015,06,15,14,00,20.30
2015,06,15,14,01,20.20
2015,06,15,14,02,20.20
2015,06,15,14,03,20.10
2015,06,15,14,04,20.10
2015,06,15,14,05,20.10
2015,06,15,14,06,20.00
2015,06,15,14,07,20.00
2015,06,15,14,08,20.00
2015,06,15,14,09,20.10
2015,06,15,14,10,20.10
2015,06,15,14,11,20.10
2015,06,15,14,12,20.10
2015,06,15,14,13,20.10
2015,06,15,14,14,20.00
2015,06,15,14,15,20.00
2015,06,15,14,16,20.00
2015,06,15,14,17,20.10
2015,06,15,14,18,20.10
2015,06,15,14,19,20.20
2015,06,15,14,20,20.20
2015,06,15,14,21,20.20
2015,06,15,14,22,20.20
2015,06,15,14,23,20.20
2015,06,15,14,24,20.20
2015,06,15,14,25,20.10
2015,06,15,14,26,20.10
2015,06,15,14,27,20.00
2015,06,15,14,28,20.00
2015,06,15,14,29,20.00
2015,06,15,14,30,19.90
2015,06,15,14,31,20.00
2015,06,15,14,32,20.00
2015,06,15,14,33,20.20
2015,06,15,14,34,20.20
2015,06,15,14,35,20.30
2015,06,15,14,36,20.40
2015,06,15,14,37,20.40
2015,06,15,14,38,20.50
2015,06,15,14,39,20.50
2015,06,15,14,40,20.60
2015,06,15,14,41,20.70
2015,06,15,14,42,20.80
2015,06,15,14,43,20.90
2015,06,15,14,44,21.00
2015,06,15,14,45,21.00
2015,06,15,14,46,21.10
2015,06,15,14,47,21.20
2015,06,15,14,48,21.30
2015,06,15,14,49,21.30
2015,06,15,14,50,21.30
2015,06,15,14,51,21.40
2015,06,15,14,52,21.40
2015,06,15,14,53,21.40
2015,06,15,14,54,21.50
2015,06,15,14,55,21.60
2015,06,15,14,56,21.70
2015,06,15,14,57,21.70
2015,06,15,14,58,21.60
2015,06,15,14,59,21.40
2015,06,15,15,00,21.20
2015,06,15,15,01,21.10
2015,06,15,15,02,21.10
2015,06,15,15,03,21.10
2015,06,15,15,04,21.20
2015,06,15,15,05,21.30
2015,06,15,15,06,21.30
2015,06,15,15,07,21.20
2015,06,15,15,08,21.20
2015,06,15,15,09,21.10
2015,06,15,15,10,21.10
2015,06,15,15,11,21.00
2015,06,15,15,12,20.90
2015,06,15,15,13,20.90
2015,06,15,15,14,21.00
2015,06,15,15,15,21.10
2015,06,15,15,16,21.10
2015,06,15,15,17,21.20
2015,06,15,15,18,21.30
2015,06,15,15,19,21.40
2015,06,15,15,20,21.40
2015,06,15,15,21,21.40
2015,06,15,15,22,21.40
2015,06,15,15,23,21.40
2015,06,15,15,24,21.40
2015,06,15,15,25,21.50
2015,06,15,15,26,21.60
2015,06,15,15,27,21.60
2015,06,15,15,28,21.50
2015,06,15,15,29,21.40
2015,06,15,15,30,21.40
2015,06,15,15,31,21.40
2015,06,15,15,32,21.40
2015,06,15,15,33,21.40
2015,06,15,15,34,21.40
2015,06,15,15,35,21.40
2015,06,15,15,36,21.50
2015,06,15,15,37,21.50
2015,06,15,15,38,21.50
2015,06,15,15,39,21.50
2015,06,15,15,40,21.40
2015,06,15,15,41,21.20
2015,06,15,15,42,21.20
2015,06,15,15,43,21.10
2015,06,15,15,44,21.10
2015,06,15,15,45,21.20
2015,06,15,15,46,21.30
2015,06,15,15,47,21.40
2015,06,15,15,48,21.50
2015,06,15,15,49,21.60
2015,06,15,15,50,21.60
2015,06,15,15,51,21.60
2015,06,15,15,52,21.60
2015,06,15,15,53,21.60
2015,06,15,15,54,21.60
2015,06,15,15,55,21.60
2015,06,15,15,56,21.60
2015,06,15,15,57,21.70
2015,06,15,15,58,21.70
2015,06,15,15,59,21.80
2015,06,15,16,00,21.90
2015,06,15,16,01,22.00
2015,06,15,16,02,22.10
2015,06,15,16,03,22.20
2015,06,15,16,04,22.20
2015,06,15,16,05,22.30
2015,06,15,16,06,22.30
2015,06,15,16,07,22.30
2015,06,15,16,08,22.30
2015,06,15,16,09,22.30
2015,06,15,16,10,22.30
2015,06,15,16,11,22.30
2015,06,15,16,12,22.30
2015,06,15,16,13,22.30
2015,06,15,16,14,22.40
2015,06,15,16,15,22.40
2015,06,15,16,16,22.40
2015,06,15,16,17,22.50
2015,06,15,16,18,22.60
2015,06,15,16,19,22.70
2015,06,15,16,20,22.80
2015,06,15,16,21,22.80
2015,06,15,16,22,22.80
2015,06,15,16,23,22.90
2015,06,15,16,24,23.00
2015,06,15,16,25,23.00
2015,06,15,16,26,23.10
2015,06,15,16,27,23.20
2015,06,15,16,28,23.20
2015,06,15,16,29,23.20
2015,06,15,16,30,23.20
2015,06,15,16,31,23.20
2015,06,15,16,32,23.10
2015,06,15,16,33,23.10
2015,06,15,16,34,23.00
2015,06,15,16,35,23.00
2015,06,15,16,36,22.90
2015,06,15,16,37,22.90
2015,06,15,16,38,22.90
2015,06,15,16,39,23.00
2015,06,15,16,40,23.10
2015,06,15,16,41,23.10
2015,06,15,16,42,23.10
2015,06,15,16,43,23.10
2015,06,15,16,44,23.10
2015,06,15,16,45,23.10
2015,06,15,16,46,23.20
2015,06,15,16,47,23.30
2015,06,15,16,48,23.30
2015,06,15,16,49,23.40
2015,06,15,16,50,23.50
2015,06,15,16,51,23.60
2015,06,15,16,52,23.70
2015,06,15,16,53,23.70
2015,06,15,16,54,23.70
2015,06,15,16,55,23.80
2015,06,15,16,56,23.80
2015,06,15,16,57,23.90
2015,06,15,16,58,24.10
2015,06,15,16,59,24.10
2015,06,15,17,00,24.20
2015,06,15,17,01,24.20
2015,06,15,17,02,24.20
2015,06,15,17,03,24.10
2015,06,15,17,04,24.20
2015,06,15,17,05,24.20
2015,06,15,17,06,24.20
2015,06,15,17,07,24.30
2015,06,15,17,08,24.40
2015,06,15,17,09,24.50
2015,06,15,17,10,24.50
2015,06,15,17,11,24.50
2015,06,15,17,12,24.40
2015,06,15,17,13,24.30
2015,06,15,17,14,24.20
2015,06,15,17,15,24.10
2015,06,15,17,16,24.00
2015,06,15,17,17,23.90
2015,06,15,17,18,23.90
2015,06,15,17,19,24.00